| time (UTC) | temp C | wind direction | speed KPH | gust KPH | rain 1hr cm | rain 24hr cm | rain mn cm | humidity % | barometer mb |
| 20260504011524 | 6 | 284 | 0.0 | 0.0 | 0.05 | 1.22 | 0.08 | 94 | 1012.2 |
| 20260504010018 | 6 | 284 | 0.0 | 0.0 | 0.00 | 1.17 | 0.03 | 94 | 1011.9 |
| 20260504004557 | 6 | 284 | 0.0 | 0.0 | 0.00 | 1.17 | 0.03 | 93 | 1012.0 |
| 20260504003035 | 6 | 284 | 0.0 | 0.0 | 0.00 | 1.17 | 0.03 | 93 | 1012.1 |
| 20260504001505 | 6 | 284 | 0.0 | 0.0 | 0.00 | 1.17 | 0.03 | 92 | 1012.3 |
| 20260504000044 | 6 | 284 | 0.0 | 0.0 | 0.00 | 1.17 | 0.03 | 92 | 1012.3 |
| 20260503234543 | 6 | 284 | 0.0 | 0.0 | 0.00 | 1.17 | 0.03 | 92 | 1012.4 |
| 20260503233020 | 6 | 284 | 0.0 | 0.0 | 0.00 | 1.17 | 0.03 | 92 | 1012.6 |
| 20260503231519 | 6 | 284 | 0.0 | 0.0 | 0.00 | 1.17 | 0.03 | 91 | 1012.7 |
| 20260503230048 | 6 | 284 | 0.0 | 0.0 | 0.03 | 1.17 | 0.03 | 91 | 1012.5 |
| 20260503224519 | 6 | 284 | 0.0 | 0.0 | 0.03 | 1.17 | 0.03 | 90 | 1012.7 |
| 20260503223058 | 7 | 284 | 0.0 | 0.0 | 0.15 | 1.17 | 0.03 | 90 | 1012.8 |
| 20260503221541 | 7 | 284 | 0.0 | 0.0 | 0.15 | 1.17 | 0.03 | 89 | 1012.8 |
| 20260503220029 | 8 | 284 | 0.0 | 0.0 | 0.15 | 1.17 | 1.17 | 86 | 1012.9 |
| 20260503214525 | 9 | 248 | 4.8 | 20.9 | 0.13 | 1.17 | 1.14 | 85 | 1013.1 |
| 20260503213022 | 8 | 286 | 0.0 | 0.0 | 0.00 | 1.04 | 1.02 | 90 | 1012.6 |
| 20260503211523 | 8 | 271 | 0.0 | 0.0 | 0.00 | 1.04 | 1.02 | 90 | 1012.4 |
| 20260503210056 | 8 | 271 | 0.0 | 0.0 | 0.05 | 1.55 | 1.02 | 90 | 1012.1 |
| 20260503204533 | 9 | 271 | 0.0 | 0.0 | 0.05 | 1.55 | 1.02 | 89 | 1012.2 |
| 20260503203004 | 10 | 271 | 0.0 | 0.0 | 0.05 | 1.55 | 1.02 | 87 | 1012.2 |
| 20260503201544 | 10 | 271 | 0.0 | 0.0 | 0.05 | 1.55 | 1.02 | 85 | 1011.9 |
| 20260503200016 | 10 | 294 | 0.0 | 6.4 | 0.00 | 1.50 | 0.99 | 83 | 1011.8 |
| 20260503194554 | 11 | 313 | 0.0 | 0.0 | 0.00 | 1.50 | 0.99 | 82 | 1011.5 |
| 20260503193026 | 11 | 313 | 0.0 | 4.8 | 0.00 | 1.50 | 0.99 | 81 | 1011.2 |
| 20260503191503 | 11 | 315 | 0.0 | 0.0 | 0.00 | 1.50 | 0.99 | 84 | 1011.2 |
| 20260503190045 | 11 | 314 | 0.0 | 0.0 | 0.00 | 1.85 | 0.99 | 85 | 1010.8 |
| 20260503184524 | 11 | 282 | 0.0 | 0.0 | 0.00 | 1.85 | 0.99 | 84 | 1010.6 |
| 20260503183111 | 11 | 282 | 0.0 | 1.6 | 0.03 | 1.85 | 0.99 | 83 | 1010.5 |
| 20260503181539 | 11 | 280 | 0.0 | 8.0 | 0.03 | 1.85 | 0.99 | 82 | 1010.5 |
| 20260503180018 | 11 | 318 | 0.0 | 0.0 | 0.05 | 1.88 | 0.99 | 85 | 1010.4 |
| 20260503174548 | 11 | 318 | 0.0 | 0.0 | 0.05 | 1.88 | 0.99 | 84 | 1010.3 |
| 20260503173021 | 11 | 318 | 0.0 | 6.4 | 0.05 | 1.85 | 0.97 | 84 | 1010.4 |
| 20260503171531 | 11 | 273 | 0.0 | 0.0 | 0.13 | 1.85 | 0.97 | 84 | 1010.3 |
| 20260503160104 | 12 | 238 | 0.0 | 4.8 | 0.00 | 1.75 | 0.84 | 82 | 1010.3 |
| 20260503081545 | 11 | 288 | 0.0 | 8.0 | 0.00 | 0.91 | 0.03 | 83 | 1013.1 |
| 20260503071609 | 10 | 287 | 0.0 | 8.0 | 0.00 | 0.91 | 0.03 | 86 | 1013.0 |
| 20260503054503 | 8 | 305 | 0.0 | 3.2 | 0.00 | 0.91 | 0.03 | 88 | 1013.0 |
| 20260503053044 | 8 | 322 | 0.0 | 4.8 | 0.00 | 0.91 | 0.03 | 89 | 1013.2 |
| 20260503051530 | 8 | 319 | 0.0 | 0.0 | 0.00 | 0.91 | 0.03 | 89 | 1013.0 |
| 20260503050024 | 8 | 306 | 0.0 | 0.0 | 0.00 | 0.91 | 0.03 | 90 | 1012.8 |
| 20260503044502 | 8 | 324 | 0.0 | 0.0 | 0.00 | 0.91 | 0.03 | 89 | 1012.9 |
| 20260503043037 | 8 | 324 | 0.0 | 0.0 | 0.00 | 0.91 | 0.03 | 89 | 1012.8 |
| 20260503041514 | 8 | 329 | 0.0 | 6.4 | 0.00 | 0.91 | 0.03 | 90 | 1012.9 |
| 20260503040048 | 8 | 326 | 0.0 | 0.0 | 0.00 | 0.91 | 0.03 | 88 | 1013.1 |
| 20260503034520 | 8 | 326 | 0.0 | 1.6 | 0.00 | 0.91 | 0.03 | 88 | 1013.4 |
| 20260503033102 | 8 | 336 | 0.0 | 1.6 | 0.00 | 0.91 | 0.03 | 89 | 1013.6 |
| 20260503031537 | 8 | 325 | 0.0 | 6.4 | 0.00 | 0.91 | 0.03 | 88 | 1013.5 |
| 20260503030013 | 8 | 315 | 0.0 | 0.0 | 0.00 | 0.91 | 0.03 | 89 | 1013.4 |
| 20260503024558 | 8 | 302 | 0.0 | 9.7 | 0.00 | 0.91 | 0.03 | 89 | 1013.5 |
| 20260503023025 | 8 | 325 | 0.0 | 4.8 | 0.00 | 0.91 | 0.03 | 90 | 1013.5 |
| 20260503021502 | 8 | 323 | 0.0 | 0.0 | 0.00 | 0.91 | 0.03 | 89 | 1013.6 |
| 20260503020044 | 9 | 323 | 0.0 | 0.0 | 0.00 | 0.91 | 0.03 | 89 | 1013.6 |
| 20260503014549 | 9 | 331 | 0.0 | 0.0 | 0.03 | 0.91 | 0.03 | 90 | 1013.8 |
| 20260503013034 | 9 | 317 | 0.0 | 0.0 | 0.03 | 0.91 | 0.03 | 90 | 1013.9 |